Location: Kershaw
(34.5481°N, 80.5823°W)
Time: 14:59:50
(UTC+00:00)

Transit 4A - Pass Details

Date: 09 October 2022
Orbit: 871 x 972 km, 66.8° (Epoch: 29 November)

Event Time Altitude Azimuth Distance (km) Brightness Sun altitude
Rises 00:46:42 0° 182° (S) 3,617 10.9 -23.4°
Reaches altitude 10° 00:49:27 10° 174° (S) 2,662 10.1 -24.0°
Enters shadow 00:50:35 15° 168° (SSE) 2,292 9.7 -24.2°
Maximum altitude 00:55:02 36° 109° (ESE) 1,426 - -25.1°
Drops below altitude 10° 01:00:32 10° 44° (NE) 2,613 - -26.2°
Sets 01:03:11 0° 37° (NE) 3,542 - -26.8°
